User: anonymous   Login
Location: Churchill
(58.7670°N, 94.1670°W)
Time: 12:27:04
(UTC-05:00)
Language:

Cosmos 2142 Rocket - Orbit

View from above orbital plane
View from above orbital plane
View from above satellite
View from above satellite

Ground track
Ground track

The orbit data is extracted from the following two-line orbital elements,

1 21231U 91029B   14301.51454308  .00000148  00000-0  13680-3 0  5821
2 21231 082.9497 101.7120 0035621 041.0078 015.5367 13.75638233181423
Epoch (UTC): 28 October 2014 12:20:56
Eccentricity: 0.0035621
inclination: 82.9497°
perigee height: 953 km
apogee height: 1005 km
right ascension of ascending node: 101.7120°
argument of perigee: 41.0078°
revolutions per day: 13.75638233
mean anomaly at epoch: 15.5367°
orbit number at epoch: 18142

The dashed part of the orbit path shows where the satellite is in the earth's shadow,  

DLR